SCP
-0 -0 -0 -0 -0 -0 -0 0 0 0 0 0 0 0 0 0 0 0 -0 -0 -0 -0 -0 -0 0 0 0 0 0 0 0 0 -0 0 0 0 0 0 0 -0 -0 -0 -0 -0 -0 0 0
-0 -0 -0 -0 -0 -0 -0 -0 0 0 0 0 0 0 0 0 0 0 -0 -0 -0 -0 -0 0 0 0 0 0 0 0 0 0 0 0 0 0 0 0 -0 -0 -0 -0 -0 0 0 0 0
-0 -0 -0 -0 -0 -0 -0 -0 -0 0 0 0 0 0 0 0 0 0 -0 -0 -0 -0 -0 0 0 0 0 0 0 0 0 0 0 0 0 0 0 0 -0 -0 -0 -0 -0 -0 0 0 0
-0 -0 -0 -0 -0 -0 -0 -0 -0 -0 0 0 0 0 0 0 0 0 -0 -0 -0 -0 0 0 0 0 0 0 -0 0 0 0 0 0 0 0 0 0 -0 0 -0 -0 -0 0 0 0 0
-0 -0 -0 -0 -0 -0 -0 -0 -0 -0 -0 0 0 0 0 0 0 0 0 -0 0 0 0 0 0 0 0 0 0 0 0 0 0 0 0 -0 -0 -0 0 0 -0 -0 0 0 -0 -0 0
-0 -0 -0 -0 -0 -0 -0 -0 -0 -0 -0 0 0 0 0 0 0 0 0 0 0 0 0 0 0 0 0 0 0 0 0 0 0 0 0 -0 -0 -0 -0 -0 0 0 0 0 0 0 -0
-0 -0 -0 -0 -0 -0 -0 -0 -0 -0 -0 0 0 0 0 0 0 0 0 0 0 0 0 0 0 0 0 0 0 0 0 0 0 -0 0 0 0 -0 0 0 0 0 0 0 0 -0 0
-0 -0 -0 -0 -0 -0 -0 -0 -0 -0 -0 -0 0 0 0 0 0 0 0 0 0 0 0 0 0 0 0 0 0 0 0 0 0 -0 -0 0 -0 0 0 0 0 -0 -0 -0 0 0 0
-0 -0 -0 -0 -0 -0 -0 -0 -0 -0 -0 -0 0 0 0 0 0 0 0 0 0 0 0 0 -0 0 0 0 0 0 0 0 0 -0 -0 -0 0 0 0 0 0 0 0 0 -0 -0 0
-0 -0 -0 -0 -0 -0 -0 -0 -0 -0 -0 -0 0 0 0 0 0 0 0 0 0 0 0 0 0 0 0 0 0 0 0 0 0 -0 -0 -0 0 0 0 0 0 0 0 0 -0 0 -0
-0 -0 -0 -0 -0 -0 -0 -0 -0 -0 -0 -0 0 0 0 0 0 0 0 0 0 0 0 0 0 0 0 0 0 -0 0 0 0 0 0 0 0 0 0 0 0 0 0 0 0 0 0
-0 -0 -0 -0 -0 -0 -0 -0 -0 -0 -0 -0 0 0 0 0 0 0 0 0 0 0 0 0 0 -0 0 0 0 0 0 0 0 0 -0 -0 0 0 0 0 0 0 0 0 0 -0 0
-0 -0 -0 -0 -0 -0 -0 -0 -0 -0 -0 -0 -0 0 0 0 0 0 0 0 0 0 0 0 0 0 0 0 0 0 0 0 0 0 0 0 0 0 -0 -0 -0 0 0 0 0 0 0
-0 -0 -0 -0 -0 -0 -0 -0 -0 -0 -0 -0 0 0 0 0 0 0 0 0 0 0 0 0 -0 0 0 0 -0 -0 0 0 -0 0 0 0 0 0 0 -0 -0 -0 0 0 0 0 0
-0 -0 -0 -0 -0 -0 -0 -0 -0 -0 -0 -0 0 0 0 0 0 0 0 0 0 0 0 0 0 0 0 -0 0 0 -0 0 0 0 0 0 0 -0 0 0 0 0 0 0 0 0 0
-0 -0 -0 -0 -0 -0 -0 -0 -0 -0 -0 -0 0 0 0 0 0 0 0 0 0 0 0 0 0 0 0 0 -0 -0 0 -0 0 0 0 0 0 0 0 0 0 0 0 0 0 0 0
-0 -0 -0 -0 -0 -0 -0 -0 -0 -0 -0 0 0 0 0 0 0 0 0 0 0 0 0 0 0 0 0 0 0 0 -0 0 -0 0 0 0 0 0 0 0 0 0 0 0 0 0 0
-0 -0 -0 -0 -0 -0 -0 -0 -0 -0 -0 0 0 0 0 0 0 0 0 0 0 0 0 0 0 0 0 0 0 0 0 0 0 0 0 0 0 0 0 0 0 0 0 0 0 0 0
-0 -0 -0 -0 -0 -0 -0 -0 -0 -0 0 0 0 0 0 0 0 0 0 0 0 0 0 0 0 0 0 0 0 0 0 0 0 0 0 0 0 0 0 0 0 0 0 0 0 0 0
-0 -0 -0 -0 -0 -0 -0 -0 -0 -0 0 0 0 0 0 0 0 0 0 0 0 0 0 0 0 0 0 0 0 0 0 0 0 0 0 0 0 0 0 0 0 0 0 0 0 0 0
-0 -0 -0 -0 -0 -0 -0 -0 -0 -0 0 0 0 0 0 0 0 0 0 0 0 0 0 0 0 0 0 0 0 0 0 0 0 0 0 0 0 0 0 0 0 0 0 0 0 0 0
-0 -0 -0 -0 -0 -0 -0 -0 -0 -0 0 0 0 0 0 0 0 0 0 0 0 0 0 0 0 0 0 0 0 0 0 0 0 0 0 0 0 0 0 0 0 0 0 0 0 0 0
-0 -0 -0 -0 -0 -0 -0 -0 -0 -0 0 0 0 0 0 0 0 0 0 0 0 0 0 0 0 0 0 0 0 0 0 0 0 0 0 0 0 0 0 0 0 0 0 0 0 0 0
0 0 -0 -0 -0 -0 -0 -0 -0 -0 0 0 0 0 0 0 0 0 0 0 0 0 0 0 0 0 0 0 0 0 0 0 0 0 0 0 0 0 0 0 0 0 0 0 0 0 0
0 0 0 0 -0 -0 -0 -0 -0 -0 -0 0 0 0 0 0 0 0 0 0 0 0 0 0 0 0 0 0 0 0 0 0 0 0 0 0 0 0 0 0 0 0 0 0 0 0 0
0 0 0 0 -0 -0 -0 -0 -0 -0 -0 0 0 0 0 0 0 0 0 0 0 0 0 0 0 0 0 0 0 0 0 0 0 0 0 0 0 0 0 0 0 0 0 0 0 0 0
0 0 0 0 0 0 -0 -0 -0 -0 -0 0 0 0 0 0 0 0 0 0 0 0 0 0 0 0 0 0 0 0 0 0 0 0 0 0 0 0 0 0 0 0 0 0 0 0 0
0 0 0 0 0 0 0 -0 -0 -0 -0 0 0 0 0 0 0 0 0 0 0 0 0 0 0 0 0 0 0 0 0 0 0 0 0 0 0 0 0 0 0 0 0 0 0 0 0
0 0 0 0 0 0 0 0 0 -0 -0 0 0 0 0 0 0 0 0 0 0 0 0 0 0 0 0 0 0 0 0 0 0 0 0 0 0 0 0 0 0 0 0 0 0 0 0
Wind_Speed_500mb
32 31 31 31 31 31 31 30 28 26 23 20 18 17 16 16 15 13 13 11 11 11 12 12 11 9 9 9 13 6 2 5 10 10 9 15 19 16 6 8 9 5 5 11 17 18 16
33 32 32 32 33 33 35 35 33 30 24 20 18 17 17 16 15 13 12 11 11 11 12 12 12 10 9 6 7 8 4 2 11 9 5 12 18 29 5 5 1 14 16 12 19 25 8
34 34 34 34 35 36 38 39 39 35 26 18 16 16 17 15 15 13 11 10 11 11 12 13 12 12 15 20 6 8 5 9 10 5 3 14 22 19 15 9 11 10 8 10 14 17 10
34 35 35 36 36 37 40 42 43 39 28 18 14 15 15 15 13 12 10 9 10 10 11 12 12 12 16 14 22 17 11 10 6 5 5 10 18 15 3 14 15 6 8 10 7 11 7
35 35 35 36 37 38 41 44 44 42 32 21 14 12 13 13 12 10 9 8 8 9 10 10 9 10 13 12 27 23 15 10 8 2 8 14 14 3 3 6 11 14 3 8 15 10 6
36 36 36 37 38 39 41 44 45 44 36 23 13 10 10 11 11 10 9 8 7 8 9 9 10 6 16 2 11 17 15 7 3 5 4 9 7 6 8 12 3 12 12 7 10 9 9
38 38 37 37 38 39 41 43 45 44 38 26 15 8 8 11 12 13 13 12 7 5 18 14 4 5 2 14 6 16 17 6 1 7 6 10 10 4 7 8 9 7 6 9 10 16 6
40 39 39 38 38 39 40 42 43 43 39 29 18 7 7 11 14 15 17 4 3 4 11 24 32 32 33 22 3 13 20 8 7 3 2 12 6 3 9 8 9 9 8 14 13 9 6
41 41 40 40 39 40 39 41 42 42 39 32 20 8 5 13 15 15 15 7 2 13 2 6 13 15 10 10 4 17 19 10 6 4 3 8 8 13 4 2 2 7 9 7 12 11 7
43 43 41 41 41 40 39 40 40 40 38 32 20 7 7 14 12 13 10 3 13 11 8 6 6 5 16 8 3 22 27 10 4 8 8 9 8 4 7 9 7 6 12 9 5 7 4
45 44 44 43 42 41 41 40 40 40 37 31 21 5 10 21 10 17 2 5 8 6 8 7 8 4 19 15 7 19 31 30 14 8 10 13 5 5 8 11 9 17 5 3 3 4 4
45 46 46 45 44 43 43 42 40 39 36 30 18 4 12 21 19 10 7 8 6 10 3 5 11 10 10 3 1 6 15 8 5 8 3 14 7 8 15 7 12 3 2 10 8 6 7
45 45 47 48 47 45 45 45 41 39 36 29 12 3 13 21 17 8 8 12 10 7 5 7 7 8 6 7 4 5 11 10 9 6 5 10 8 6 7 2 6 11 13 8 10 11 9
45 45 48 49 50 47 46 46 41 38 35 26 5 2 14 26 17 7 13 9 2 3 8 4 8 7 9 10 7 5 9 7 5 10 4 2 12 7 3 7 10 5 12 10 3 2 10
45 45 47 50 52 49 47 47 42 37 33 19 2 3 11 26 14 9 8 5 9 9 6 5 5 9 1 3 4 2 9 13 15 17 10 6 8 6 10 6 6 6 8 8 11 5 3
43 45 46 50 53 50 48 48 45 35 31 13 2 4 15 27 16 10 9 8 8 9 9 4 6 6 10 6 10 10 9 7 10 24 12 9 5 6 9 5 20 13 9 8 8 1 5
43 44 45 49 53 52 48 49 47 35 26 9 5 8 20 26 16 5 6 12 11 17 5 3 1 7 3 5 7 7 8 4 5 5 12 8 7 11 7 11 4 7 6 13 10 7 9
42 43 45 48 52 53 47 47 46 37 20 6 3 7 30 27 7 4 5 9 8 11 2 5 4 7 6 5 6 2 6 5 18 11 10 1 10 6 4 9 5 4 7 8 9 7 1
41 42 44 46 51 53 44 46 45 34 21 4 5 11 29 20 5 4 9 8 9 7 8 8 6 8 9 6 8 6 5 10 17 9 9 9 3 5 9 12 7 9 1 10 11 6 6
39 41 42 45 49 51 42 45 44 32 22 5 3 5 8 9 3 9 4 9 6 9 4 9 7 7 8 10 12 6 8 9 15 11 16 10 6 10 12 9 6 5 3 6 10 7 5
36 39 40 43 47 47 41 42 42 32 19 6 5 2 6 6 6 4 1 5 6 6 4 17 8 10 7 6 6 6 5 10 13 21 10 9 6 4 5 4 1 4 6 8 10 10 12
32 36 38 40 43 44 40 41 39 35 15 15 6 4 4 5 0 4 6 6 2 3 5 5 12 6 4 11 5 8 3 2 5 11 7 6 5 5 4 5 7 7 13 13 7 5 8
29 31 35 37 39 41 37 38 39 34 26 11 9 7 2 7 4 6 3 6 4 3 15 13 14 9 12 8 9 3 10 8 4 3 6 4 12 7 10 6 5 7 10 6 6 4 6
25 27 31 33 35 37 33 32 35 29 35 31 18 4 4 3 5 1 8 6 11 8 10 7 8 7 3 3 5 6 7 11 11 11 7 9 9 5 5 6 5 10 11 7 9 4 6
22 25 28 30 31 32 30 27 29 25 18 28 30 7 5 5 3 6 14 6 6 17 12 12 15 8 6 4 7 9 9 5 5 9 6 4 10 5 8 8 5 9 3 4 3 6 2
19 23 26 27 28 28 28 24 23 24 16 15 27 16 5 8 6 2 3 8 4 4 9 6 12 11 4 9 8 4 5 3 5 6 10 10 11 8 4 7 13 4 8 19 6 6 6
19 24 26 24 24 25 25 22 20 20 19 12 19 20 4 4 8 6 5 2 4 5 4 5 9 7 10 5 6 3 3 2 1 3 6 7 7 7 3 5 8 4 18 10 4 7 5
24 26 29 24 19 20 22 20 20 19 18 14 12 20 5 2 7 7 7 4 3 3 6 1 5 7 8 8 5 4 3 1 4 2 2 5 4 1 3 2 7 9 6 5 8 7 20
26 26 26 23 16 16 18 18 19 18 17 14 11 24 2 4 4 8 11 8 9 9 4 4 5 3 6 8 1 5 2 3 4 3 6 3 8 6 11 9 6 2 1 14 14 18 36
Wind_Direction_500mb
24 21 18 15 13 9 3 356 344 332 315 298 285 275 269 265 264 261 259 253 249 239 234 229 228 236 267 275 260 282 20 37 28 24 2 359 7 12 0 304 331 223 275 238 225 205 196
17 15 13 10 9 7 3 359 349 338 322 301 282 270 261 257 258 255 251 247 242 234 230 226 225 228 249 269 215 229 284 335 16 40 19 353 352 345 302 296 271 309 290 267 244 221 220
12 9 8 7 4 4 2 0 355 347 335 311 285 267 256 251 250 247 243 239 235 231 225 221 225 229 244 235 196 206 229 339 9 18 239 348 342 330 312 316 329 289 307 325 251 230 214
6 5 5 4 2 2 0 360 358 355 347 329 295 269 253 244 239 237 233 230 230 226 221 218 224 239 251 247 227 202 264 306 9 60 306 326 337 312 304 316 351 34 46 5 286 163 245
360 359 359 360 360 360 359 359 0 0 354 336 309 275 251 236 228 221 218 215 218 217 212 214 220 228 256 243 226 222 255 277 346 88 314 318 317 11 24 44 15 8 319 310 314 223 102
357 356 356 355 356 357 358 357 0 3 1 350 321 285 248 220 207 197 191 182 190 196 198 198 224 262 252 103 214 225 221 246 34 11 360 23 22 55 40 52 330 319 338 314 258 287 167
356 354 353 353 353 354 355 356 358 2 3 359 347 296 235 200 187 181 173 148 157 192 209 202 193 231 243 11 160 209 200 209 111 56 39 18 44 241 266 208 216 245 213 252 258 267 189
356 354 353 352 352 353 353 354 356 359 1 0 356 339 213 183 179 175 174 156 105 56 294 242 249 258 266 293 285 181 187 181 106 108 37 14 274 268 236 213 207 214 250 278 294 254 123
357 355 353 352 352 352 351 352 353 355 358 359 356 350 176 173 177 182 176 141 351 267 298 262 235 249 246 203 211 171 180 171 105 111 127 162 241 309 353 358 155 206 197 247 232 338 14
359 356 355 353 352 352 351 351 350 351 353 356 354 355 164 171 173 170 163 229 296 221 70 262 233 223 181 155 302 190 200 165 39 225 171 252 288 260 328 291 154 300 209 244 276 56 278
0 358 356 355 353 351 351 351 349 349 349 352 351 339 178 168 155 144 148 338 137 158 83 160 190 186 172 170 142 204 200 205 168 194 103 249 241 295 315 239 165 230 359 74 33 114 62
1 359 358 356 354 352 352 352 350 347 345 347 342 301 189 182 152 130 14 141 147 40 63 183 140 154 118 206 107 106 174 174 169 162 298 241 272 228 219 238 185 72 64 46 59 72 33
0 359 358 356 355 352 353 352 351 347 344 345 334 277 188 175 157 114 116 139 38 113 342 186 176 160 130 151 241 163 155 172 169 106 305 318 247 267 229 250 29 75 52 351 6 10 229
358 359 358 357 355 353 352 351 352 348 344 348 347 196 183 175 151 107 142 50 110 244 244 28 112 91 155 158 230 142 109 171 177 92 95 107 346 16 20 208 150 86 129 145 220 261 277
357 357 357 356 356 353 351 349 352 351 345 352 60 140 176 177 165 137 153 77 224 207 300 352 85 93 240 204 139 155 165 185 205 168 180 160 277 313 32 6 100 163 55 165 103 8 44
356 356 356 355 355 354 352 350 352 353 345 352 36 145 148 161 150 147 79 245 254 214 330 2 162 135 172 223 151 156 186 195 222 188 167 211 320 8 298 14 33 102 158 44 14 170 289
353 354 354 354 354 355 353 351 352 354 346 354 91 110 147 149 153 134 158 235 278 284 266 216 195 116 164 137 147 191 202 24 344 32 150 132 118 293 26 27 324 358 24 61 111 121 173
350 353 354 353 354 355 354 353 353 354 354 339 106 71 157 153 70 36 176 209 304 289 284 269 104 87 106 78 73 176 141 294 338 150 129 83 132 114 125 296 289 122 129 105 112 261 44
349 351 353 353 353 355 357 357 355 359 7 19 94 99 163 183 142 264 284 276 255 321 323 6 39 61 54 70 96 58 9 332 23 72 133 183 22 53 10 354 349 68 124 116 112 98 201
347 349 352 353 354 357 1 1 358 2 9 11 133 92 147 216 166 137 346 286 299 338 43 51 46 59 83 53 20 90 19 338 11 72 79 110 106 148 194 212 160 171 204 94 113 113 191
343 347 350 352 355 359 3 6 3 5 13 49 46 97 146 204 273 151 120 292 309 10 53 34 51 31 135 96 35 47 358 351 13 12 45 83 135 159 208 219 238 234 222 184 182 186 168
337 344 348 351 355 359 4 8 13 11 11 45 62 58 102 104 30 146 135 211 209 130 38 15 95 20 122 126 172 172 135 11 261 351 54 17 187 135 289 193 196 254 237 248 245 121 278
331 339 346 350 354 359 4 10 14 24 30 52 52 54 22 359 66 102 230 307 343 131 45 102 136 91 66 150 166 311 255 270 273 188 165 124 137 119 240 15 5 306 254 199 148 98 193
324 332 343 347 351 357 3 11 17 20 30 35 27 17 2 324 79 86 343 42 22 348 124 90 67 99 86 266 260 285 297 327 341 334 207 133 100 93 194 42 236 257 332 167 113 75 104
312 323 334 342 347 354 1 9 19 20 15 21 25 29 28 90 352 7 21 13 28 55 54 77 48 51 30 63 59 29 338 73 40 33 25 98 120 106 152 185 305 307 322 27 357 252 107
300 315 324 332 341 348 356 3 14 21 14 4 19 23 40 119 334 293 360 29 94 34 11 39 41 40 85 77 68 113 185 183 311 18 70 65 75 116 131 163 211 232 305 352 140 270 13
294 305 316 321 332 340 348 356 3 12 13 352 5 17 17 88 48 61 80 92 76 88 115 338 348 23 35 66 77 134 248 272 200 29 334 6 8 113 147 196 285 274 299 313 161 236 349
282 293 306 312 316 330 340 345 355 357 1 9 347 360 359 36 79 76 76 82 87 74 134 89 55 355 48 68 116 200 138 248 68 302 146 150 109 213 100 94 268 330 359 41 212 208 311
273 283 299 303 294 312 330 335 348 355 356 359 1 347 231 199 123 98 100 103 68 32 50 69 123 137 147 91 100 117 119 58 135 254 344 338 175 193 169 217 233 230 249 285 232 297 321
Wind_Speed_850mb
32 31 31 31 31 31 31 30 28 26 23 20 18 17 16 16 15 13 13 11 11 11 12 12 11 9 9 9 13 6 2 5 10 10 9 15 19 16 6 8 9 5 5 11 17 18 16
33 32 32 32 33 33 35 35 33 30 24 20 18 17 17 16 15 13 12 11 11 11 12 12 12 10 9 6 7 8 4 2 11 9 5 12 18 29 5 5 1 14 16 12 19 25 8
34 34 34 34 35 36 38 39 39 35 26 18 16 16 17 15 15 13 11 10 11 11 12 13 12 12 15 20 6 8 5 9 10 5 3 14 22 19 15 9 11 10 8 10 14 17 10
34 35 35 36 36 37 40 42 43 39 28 18 14 15 15 15 13 12 10 9 10 10 11 12 12 12 16 14 22 17 11 10 6 5 5 10 18 15 3 14 15 6 8 10 7 11 7
35 35 35 36 37 38 41 44 44 42 32 21 14 12 13 13 12 10 9 8 8 9 10 10 9 10 13 12 27 23 15 10 8 2 8 14 14 3 3 6 11 14 3 8 15 10 6
36 36 36 37 38 39 41 44 45 44 36 23 13 10 10 11 11 10 9 8 7 8 9 9 10 6 16 2 11 17 15 7 3 5 4 9 7 6 8 12 3 12 12 7 10 9 9
38 38 37 37 38 39 41 43 45 44 38 26 15 8 8 11 12 13 13 12 7 5 18 14 4 5 2 14 6 16 17 6 1 7 6 10 10 4 7 8 9 7 6 9 10 16 6
40 39 39 38 38 39 40 42 43 43 39 29 18 7 7 11 14 15 17 4 3 4 11 24 32 32 33 22 3 13 20 8 7 3 2 12 6 3 9 8 9 9 8 14 13 9 6
41 41 40 40 39 40 39 41 42 42 39 32 20 8 5 13 15 15 15 7 2 13 2 6 13 15 10 10 4 17 19 10 6 4 3 8 8 13 4 2 2 7 9 7 12 11 7
43 43 41 41 41 40 39 40 40 40 38 32 20 7 7 14 12 13 10 3 13 11 8 6 6 5 16 8 3 22 27 10 4 8 8 9 8 4 7 9 7 6 12 9 5 7 4
45 44 44 43 42 41 41 40 40 40 37 31 21 5 10 21 10 17 2 5 8 6 8 7 8 4 19 15 7 19 31 30 14 8 10 13 5 5 8 11 9 17 5 3 3 4 4
45 46 46 45 44 43 43 42 40 39 36 30 18 4 12 21 19 10 7 8 6 10 3 5 11 10 10 3 1 6 15 8 5 8 3 14 7 8 15 7 12 3 2 10 8 6 7
45 45 47 48 47 45 45 45 41 39 36 29 12 3 13 21 17 8 8 12 10 7 5 7 7 8 6 7 4 5 11 10 9 6 5 10 8 6 7 2 6 11 13 8 10 11 9
45 45 48 49 50 47 46 46 41 38 35 26 5 2 14 26 17 7 13 9 2 3 8 4 8 7 9 10 7 5 9 7 5 10 4 2 12 7 3 7 10 5 12 10 3 2 10
45 45 47 50 52 49 47 47 42 37 33 19 2 3 11 26 14 9 8 5 9 9 6 5 5 9 1 3 4 2 9 13 15 17 10 6 8 6 10 6 6 6 8 8 11 5 3
43 45 46 50 53 50 48 48 45 35 31 13 2 4 15 27 16 10 9 8 8 9 9 4 6 6 10 6 10 10 9 7 10 24 12 9 5 6 9 5 20 13 9 8 8 1 5
43 44 45 49 53 52 48 49 47 35 26 9 5 8 20 26 16 5 6 12 11 17 5 3 1 7 3 5 7 7 8 4 5 5 12 8 7 11 7 11 4 7 6 13 10 7 9
42 43 45 48 52 53 47 47 46 37 20 6 3 7 30 27 7 4 5 9 8 11 2 5 4 7 6 5 6 2 6 5 18 11 10 1 10 6 4 9 5 4 7 8 9 7 1
41 42 44 46 51 53 44 46 45 34 21 4 5 11 29 20 5 4 9 8 9 7 8 8 6 8 9 6 8 6 5 10 17 9 9 9 3 5 9 12 7 9 1 10 11 6 6
39 41 42 45 49 51 42 45 44 32 22 5 3 5 8 9 3 9 4 9 6 9 4 9 7 7 8 10 12 6 8 9 15 11 16 10 6 10 12 9 6 5 3 6 10 7 5
36 39 40 43 47 47 41 42 42 32 19 6 5 2 6 6 6 4 1 5 6 6 4 17 8 10 7 6 6 6 5 10 13 21 10 9 6 4 5 4 1 4 6 8 10 10 12
32 36 38 40 43 44 40 41 39 35 15 15 6 4 4 5 0 4 6 6 2 3 5 5 12 6 4 11 5 8 3 2 5 11 7 6 5 5 4 5 7 7 13 13 7 5 8
29 31 35 37 39 41 37 38 39 34 26 11 9 7 2 7 4 6 3 6 4 3 15 13 14 9 12 8 9 3 10 8 4 3 6 4 12 7 10 6 5 7 10 6 6 4 6
25 27 31 33 35 37 33 32 35 29 35 31 18 4 4 3 5 1 8 6 11 8 10 7 8 7 3 3 5 6 7 11 11 11 7 9 9 5 5 6 5 10 11 7 9 4 6
22 25 28 30 31 32 30 27 29 25 18 28 30 7 5 5 3 6 14 6 6 17 12 12 15 8 6 4 7 9 9 5 5 9 6 4 10 5 8 8 5 9 3 4 3 6 2
19 23 26 27 28 28 28 24 23 24 16 15 27 16 5 8 6 2 3 8 4 4 9 6 12 11 4 9 8 4 5 3 5 6 10 10 11 8 4 7 13 4 8 19 6 6 6
19 24 26 24 24 25 25 22 20 20 19 12 19 20 4 4 8 6 5 2 4 5 4 5 9 7 10 5 6 3 3 2 1 3 6 7 7 7 3 5 8 4 18 10 4 7 5
24 26 29 24 19 20 22 20 20 19 18 14 12 20 5 2 7 7 7 4 3 3 6 1 5 7 8 8 5 4 3 1 4 2 2 5 4 1 3 2 7 9 6 5 8 7 20
26 26 26 23 16 16 18 18 19 18 17 14 11 24 2 4 4 8 11 8 9 9 4 4 5 3 6 8 1 5 2 3 4 3 6 3 8 6 11 9 6 2 1 14 14 18 36
Wind_Direction_850mb
24 21 18 15 13 9 3 356 344 332 315 298 285 275 269 265 264 261 259 253 249 239 234 229 228 236 267 275 260 282 20 37 28 24 2 359 7 12 0 304 331 223 275 238 225 205 196
17 15 13 10 9 7 3 359 349 338 322 301 282 270 261 257 258 255 251 247 242 234 230 226 225 228 249 269 215 229 284 335 16 40 19 353 352 345 302 296 271 309 290 267 244 221 220
12 9 8 7 4 4 2 0 355 347 335 311 285 267 256 251 250 247 243 239 235 231 225 221 225 229 244 235 196 206 229 339 9 18 239 348 342 330 312 316 329 289 307 325 251 230 214
6 5 5 4 2 2 0 360 358 355 347 329 295 269 253 244 239 237 233 230 230 226 221 218 224 239 251 247 227 202 264 306 9 60 306 326 337 312 304 316 351 34 46 5 286 163 245
360 359 359 360 360 360 359 359 0 0 354 336 309 275 251 236 228 221 218 215 218 217 212 214 220 228 256 243 226 222 255 277 346 88 314 318 317 11 24 44 15 8 319 310 314 223 102
357 356 356 355 356 357 358 357 0 3 1 350 321 285 248 220 207 197 191 182 190 196 198 198 224 262 252 103 214 225 221 246 34 11 360 23 22 55 40 52 330 319 338 314 258 287 167
356 354 353 353 353 354 355 356 358 2 3 359 347 296 235 200 187 181 173 148 157 192 209 202 193 231 243 11 160 209 200 209 111 56 39 18 44 241 266 208 216 245 213 252 258 267 189
356 354 353 352 352 353 353 354 356 359 1 0 356 339 213 183 179 175 174 156 105 56 294 242 249 258 266 293 285 181 187 181 106 108 37 14 274 268 236 213 207 214 250 278 294 254 123
357 355 353 352 352 352 351 352 353 355 358 359 356 350 176 173 177 182 176 141 351 267 298 262 235 249 246 203 211 171 180 171 105 111 127 162 241 309 353 358 155 206 197 247 232 338 14
359 356 355 353 352 352 351 351 350 351 353 356 354 355 164 171 173 170 163 229 296 221 70 262 233 223 181 155 302 190 200 165 39 225 171 252 288 260 328 291 154 300 209 244 276 56 278
0 358 356 355 353 351 351 351 349 349 349 352 351 339 178 168 155 144 148 338 137 158 83 160 190 186 172 170 142 204 200 205 168 194 103 249 241 295 315 239 165 230 359 74 33 114 62
1 359 358 356 354 352 352 352 350 347 345 347 342 301 189 182 152 130 14 141 147 40 63 183 140 154 118 206 107 106 174 174 169 162 298 241 272 228 219 238 185 72 64 46 59 72 33
0 359 358 356 355 352 353 352 351 347 344 345 334 277 188 175 157 114 116 139 38 113 342 186 176 160 130 151 241 163 155 172 169 106 305 318 247 267 229 250 29 75 52 351 6 10 229
358 359 358 357 355 353 352 351 352 348 344 348 347 196 183 175 151 107 142 50 110 244 244 28 112 91 155 158 230 142 109 171 177 92 95 107 346 16 20 208 150 86 129 145 220 261 277
357 357 357 356 356 353 351 349 352 351 345 352 60 140 176 177 165 137 153 77 224 207 300 352 85 93 240 204 139 155 165 185 205 168 180 160 277 313 32 6 100 163 55 165 103 8 44
356 356 356 355 355 354 352 350 352 353 345 352 36 145 148 161 150 147 79 245 254 214 330 2 162 135 172 223 151 156 186 195 222 188 167 211 320 8 298 14 33 102 158 44 14 170 289
353 354 354 354 354 355 353 351 352 354 346 354 91 110 147 149 153 134 158 235 278 284 266 216 195 116 164 137 147 191 202 24 344 32 150 132 118 293 26 27 324 358 24 61 111 121 173
350 353 354 353 354 355 354 353 353 354 354 339 106 71 157 153 70 36 176 209 304 289 284 269 104 87 106 78 73 176 141 294 338 150 129 83 132 114 125 296 289 122 129 105 112 261 44
349 351 353 353 353 355 357 357 355 359 7 19 94 99 163 183 142 264 284 276 255 321 323 6 39 61 54 70 96 58 9 332 23 72 133 183 22 53 10 354 349 68 124 116 112 98 201
347 349 352 353 354 357 1 1 358 2 9 11 133 92 147 216 166 137 346 286 299 338 43 51 46 59 83 53 20 90 19 338 11 72 79 110 106 148 194 212 160 171 204 94 113 113 191
343 347 350 352 355 359 3 6 3 5 13 49 46 97 146 204 273 151 120 292 309 10 53 34 51 31 135 96 35 47 358 351 13 12 45 83 135 159 208 219 238 234 222 184 182 186 168
337 344 348 351 355 359 4 8 13 11 11 45 62 58 102 104 30 146 135 211 209 130 38 15 95 20 122 126 172 172 135 11 261 351 54 17 187 135 289 193 196 254 237 248 245 121 278
331 339 346 350 354 359 4 10 14 24 30 52 52 54 22 359 66 102 230 307 343 131 45 102 136 91 66 150 166 311 255 270 273 188 165 124 137 119 240 15 5 306 254 199 148 98 193
324 332 343 347 351 357 3 11 17 20 30 35 27 17 2 324 79 86 343 42 22 348 124 90 67 99 86 266 260 285 297 327 341 334 207 133 100 93 194 42 236 257 332 167 113 75 104
312 323 334 342 347 354 1 9 19 20 15 21 25 29 28 90 352 7 21 13 28 55 54 77 48 51 30 63 59 29 338 73 40 33 25 98 120 106 152 185 305 307 322 27 357 252 107
300 315 324 332 341 348 356 3 14 21 14 4 19 23 40 119 334 293 360 29 94 34 11 39 41 40 85 77 68 113 185 183 311 18 70 65 75 116 131 163 211 232 305 352 140 270 13
294 305 316 321 332 340 348 356 3 12 13 352 5 17 17 88 48 61 80 92 76 88 115 338 348 23 35 66 77 134 248 272 200 29 334 6 8 113 147 196 285 274 299 313 161 236 349
282 293 306 312 316 330 340 345 355 357 1 9 347 360 359 36 79 76 76 82 87 74 134 89 55 355 48 68 116 200 138 248 68 302 146 150 109 213 100 94 268 330 359 41 212 208 311
273 283 299 303 294 312 330 335 348 355 356 359 1 347 231 199 123 98 100 103 68 32 50 69 123 137 147 91 100 117 119 58 135 254 344 338 175 193 169 217 233 230 249 285 232 297 321